Find STARLINK-37968

NORAD ID: 799501033 Int'l Des: 2026-146K Constellation: starlink operational

Aktuelle Ansicht

3D-Globus wird geladen...

About STARLINK-37968

STARLINK-37968 (NORAD 799501033) is a starlink constellation satellite launched Jun 12, 2026

Über STARLINK-37968

Beschreibung wird geladen...

Nächste Überflüge

Passes for default location (London). Set your location on the main map for personalized predictions.

Höhenverlauf

Loading altitude history...

Zweizeiliger Elementsatz

1 99999C 2026146K 26176.37548610 .00682940 00000-0 105060-3 0 1763
2 99999 97.2857 22.0353 0011172 278.6912 90.8139 16.03820159 13
Epoch: 25. Juni 2026 • Age: 9 hours